TimeCDT,TemperatureF,Dew PointF,Humidity,Sea Level PressureIn,VisibilityMPH,Wind Direction,Wind SpeedMPH,Gust SpeedMPH,PrecipitationIn,Events,Conditions,WindDirDegrees,DateUTC
12:15 AM,39.2,32.2,76,29.97,10.0,North,8.1,-,N/A,,Clear,350,2012-11-02 05:15:00
12:35 AM,38.1,32.0,79,29.97,10.0,NNW,10.4,-,N/A,,Clear,340,2012-11-02 05:35:00
12:55 AM,37.6,32.0,80,29.98,10.0,NNW,8.1,-,N/A,,Clear,340,2012-11-02 05:55:00
1:15 AM,37.0,31.8,81,29.99,10.0,NNW,9.2,-,N/A,,Clear,340,2012-11-02 06:15:00
1:35 AM,36.9,31.8,82,29.99,10.0,North,9.2,-,N/A,,Clear,350,2012-11-02 06:35:00
1:55 AM,36.1,31.5,83,29.99,10.0,North,6.9,-,N/A,,Clear,350,2012-11-02 06:55:00
2:15 AM,35.4,31.1,84,30.00,10.0,North,6.9,-,N/A,,Clear,350,2012-11-02 07:15:00
2:35 AM,34.7,30.7,85,30.00,10.0,North,6.9,-,N/A,,Clear,360,2012-11-02 07:35:00
2:55 AM,35.4,30.9,84,30.01,10.0,North,8.1,-,N/A,,Clear,360,2012-11-02 07:55:00
3:15 AM,35.1,30.4,83,30.01,10.0,North,6.9,-,N/A,,Clear,360,2012-11-02 08:15:00
3:35 AM,34.3,30.2,85,30.01,10.0,North,8.1,-,N/A,,Clear,360,2012-11-02 08:35:00
3:55 AM,35.8,30.2,80,30.02,10.0,North,9.2,-,N/A,,Clear,360,2012-11-02 08:55:00
4:15 AM,35.6,30.0,80,30.02,10.0,North,9.2,-,N/A,,Clear,360,2012-11-02 09:15:00
4:35 AM,35.2,29.7,80,30.02,10.0,North,9.2,-,N/A,,Clear,10,2012-11-02 09:35:00
4:55 AM,33.8,30.2,87,30.03,10.0,North,8.1,-,N/A,,Clear,10,2012-11-02 09:55:00
5:15 AM,33.8,29.3,84,30.03,10.0,North,6.9,-,N/A,,Clear,360,2012-11-02 10:15:00
5:35 AM,32.9,28.9,85,30.04,10.0,North,6.9,-,N/A,,Clear,10,2012-11-02 10:35:00
5:55 AM,32.4,28.6,86,30.05,10.0,North,5.8,-,N/A,,Clear,360,2012-11-02 10:55:00
6:15 AM,32.0,28.0,85,30.06,10.0,NNE,5.8,-,N/A,,Clear,20,2012-11-02 11:15:00
6:35 AM,32.0,28.2,86,30.06,10.0,North,4.6,-,N/A,,Clear,10,2012-11-02 11:35:00
6:55 AM,32.0,28.2,86,30.06,10.0,NNE,4.6,-,N/A,,Clear,20,2012-11-02 11:55:00
7:15 AM,32.0,28.2,86,30.06,10.0,Calm,Calm,-,N/A,,Clear,0,2012-11-02 12:15:00
7:35 AM,30.9,27.3,86,30.08,10.0,Calm,Calm,-,N/A,,Clear,0,2012-11-02 12:35:00
7:55 AM,31.6,27.5,85,30.08,10.0,North,3.5,-,N/A,,Clear,10,2012-11-02 12:55:00
8:15 AM,32.0,28.2,86,30.08,10.0,NNE,4.6,-,N/A,,Clear,30,2012-11-02 13:15:00
8:35 AM,32.7,29.8,89,30.09,10.0,NNE,3.5,-,N/A,,Clear,30,2012-11-02 13:35:00
8:55 AM,35.6,32.0,87,30.10,10.0,NE,5.8,-,N/A,,Clear,50,2012-11-02 13:55:00
9:15 AM,37.6,32.0,80,30.11,10.0,NE,6.9,-,N/A,,Clear,50,2012-11-02 14:15:00
9:35 AM,38.8,32.0,76,30.12,10.0,ENE,6.9,-,N/A,,Clear,70,2012-11-02 14:35:00
9:55 AM,40.1,32.2,73,30.12,10.0,East,9.2,-,N/A,,Clear,90,2012-11-02 14:55:00
10:15 AM,41.2,32.2,70,30.12,10.0,East,9.2,-,N/A,,Clear,80,2012-11-02 15:15:00
10:35 AM,42.4,32.0,67,30.12,10.0,East,6.9,-,N/A,,Clear,90,2012-11-02 15:35:00
10:55 AM,43.9,32.2,63,30.13,10.0,East,8.1,-,N/A,,Clear,90,2012-11-02 15:55:00
11:15 AM,45.0,32.4,61,30.13,10.0,East,5.8,-,N/A,,Clear,80,2012-11-02 16:15:00
11:35 AM,45.9,31.6,58,30.13,10.0,ESE,4.6,-,N/A,,Clear,110,2012-11-02 16:35:00
11:55 AM,47.1,31.5,55,30.13,10.0,East,8.1,-,N/A,,Clear,100,2012-11-02 16:55:00
12:15 PM,47.7,30.9,52,30.13,10.0,East,6.9,-,N/A,,Clear,90,2012-11-02 17:15:00
12:35 PM,48.6,30.6,50,30.12,10.0,ENE,5.8,-,N/A,,Clear,70,2012-11-02 17:35:00
12:55 PM,49.3,28.9,45,30.11,10.0,East,6.9,-,N/A,,Clear,90,2012-11-02 17:55:00
1:15 PM,48.7,28.2,45,30.10,10.0,East,4.6,-,N/A,,Clear,100,2012-11-02 18:15:00
1:35 PM,49.6,27.9,43,30.10,10.0,NE,3.5,-,N/A,,Clear,50,2012-11-02 18:35:00
1:55 PM,50.5,27.9,42,30.09,10.0,ENE,8.1,-,N/A,,Clear,70,2012-11-02 18:55:00
2:15 PM,51.6,28.4,41,30.08,10.0,ENE,5.8,-,N/A,,Clear,70,2012-11-02 19:15:00
2:35 PM,51.1,27.1,40,30.09,10.0,ENE,5.8,-,N/A,,Clear,70,2012-11-02 19:35:00
2:55 PM,51.4,28.0,40,30.08,10.0,East,8.1,-,N/A,,Clear,80,2012-11-02 19:55:00
3:15 PM,50.9,28.8,43,30.08,10.0,ENE,8.1,-,N/A,,Clear,70,2012-11-02 20:15:00
3:35 PM,51.8,28.9,41,30.07,10.0,East,9.2,-,N/A,,Clear,100,2012-11-02 20:35:00
3:55 PM,51.8,29.3,42,30.08,10.0,East,6.9,-,N/A,,Clear,90,2012-11-02 20:55:00
4:15 PM,51.6,28.9,42,30.07,10.0,East,11.5,-,N/A,,Clear,90,2012-11-02 21:15:00
4:35 PM,51.6,29.5,43,30.06,10.0,East,9.2,-,N/A,,Clear,90,2012-11-02 21:35:00
4:55 PM,51.8,30.2,44,30.06,10.0,East,9.2,-,N/A,,Clear,100,2012-11-02 21:55:00
5:15 PM,51.3,29.5,43,30.08,10.0,East,9.2,-,N/A,,Clear,90,2012-11-02 22:15:00
5:35 PM,50.5,30.6,46,30.08,10.0,East,5.8,-,N/A,,Clear,100,2012-11-02 22:35:00
5:55 PM,49.3,31.6,51,30.08,10.0,East,4.6,-,N/A,,Clear,90,2012-11-02 22:55:00
6:15 PM,47.8,32.2,55,30.07,7.0,East,5.8,-,N/A,,Clear,90,2012-11-02 23:15:00
6:35 PM,46.4,32.5,59,30.06,10.0,East,8.1,-,N/A,,Clear,80,2012-11-02 23:35:00
6:55 PM,46.4,33.8,62,30.07,10.0,ESE,4.6,-,N/A,,Clear,110,2012-11-02 23:55:00
7:15 PM,46.6,32.0,57,30.09,10.0,ENE,5.8,-,N/A,,Clear,70,2012-11-03 00:15:00
7:35 PM,44.4,32.2,62,30.08,10.0,East,5.8,-,N/A,,Clear,80,2012-11-03 00:35:00
7:55 PM,43.0,32.0,65,30.08,10.0,East,5.8,-,N/A,,Clear,80,2012-11-03 00:55:00
8:15 PM,42.1,32.0,67,30.08,10.0,ENE,5.8,-,N/A,,Clear,70,2012-11-03 01:15:00
8:35 PM,41.0,31.6,69,30.08,10.0,ENE,6.9,-,N/A,,Clear,70,2012-11-03 01:35:00
8:55 PM,41.4,31.8,69,30.08,10.0,ENE,6.9,-,N/A,,Clear,70,2012-11-03 01:55:00
9:15 PM,41.4,31.6,68,30.09,10.0,ENE,8.1,-,N/A,,Clear,70,2012-11-03 02:15:00
9:35 PM,40.1,31.8,72,30.09,10.0,East,6.9,-,N/A,,Clear,80,2012-11-03 02:35:00
9:55 PM,39.6,31.6,73,30.10,10.0,East,5.8,-,N/A,,Clear,80,2012-11-03 02:55:00
10:15 PM,39.4,31.1,72,30.11,10.0,East,4.6,-,N/A,,Clear,80,2012-11-03 03:15:00
10:35 PM,38.5,31.1,75,30.10,10.0,East,6.9,-,N/A,,Clear,80,2012-11-03 03:35:00
10:55 PM,37.0,30.2,76,30.10,10.0,East,8.1,-,N/A,,Clear,80,2012-11-03 03:55:00
11:15 PM,36.0,30.0,79,30.10,10.0,East,5.8,-,N/A,,Clear,80,2012-11-03 04:15:00
11:35 PM,37.4,30.0,75,30.12,10.0,ENE,5.8,-,N/A,,Clear,70,2012-11-03 04:35:00
11:55 PM,36.3,29.8,77,30.11,10.0,ENE,6.9,-,N/A,,Scattered Clouds,70,2012-11-03 04:55:00